sat.trackr.live / text

‹ back to catalog

STARLINK-34322

NORAD 64702 · 2025-142G

PAYLOAD ACTIVE UNKNOWN

§ Identity

Operator
Country
US
Launch date
2025-06-28
Launch site
AFWTR
Launch vehicle
Mass (kg)
RCS (m²)

Purposes: comms

External: N2YO · Heavens-Above · Gunter

§ Orbital elements

Epoch: 2026-05-25T04:48:35.429184Z

Period
96.11 min
Inclination
70.0006°
Eccentricity
0.0003783
Mean motion
14.98335671 rev/d
Perigee alt
569.4 km
Apogee alt
574.7 km
Semi-major
6,950.2 km
B*
2.5275e-4
RAAN
121.4256°
Arg perigee
259.1625°
Mean anomaly
100.9109°
Rev number
5,110

§ Raw data

STARLINK-343221 64702U 25142G   26145.20041006  .00002925  00000+0  25275-3 0  99952 64702  70.0006 121.4256 0003783 259.1625 100.9109 14.98335671 51100

JSON: /api/v1/satellites/64702 · /tle

For live sub-satellite position, see the globe view (requires WebGL).

§ Visibility from observer

Set your observer location to see the next 7 days of passes ≥ 10°. The values pass through the URL so the page stays shareable.

No JS? Fill the form by hand. The geolocation button needs JavaScript.